[[{"header":{"parameterUnit":"m.s-1","parameterCategory":1,"la1":30.2991,"la2":30.254,"lo1":-89.0895,"lo2":-89.0444,"dy":0.0017,"dx":0.0017,"nx":28,"ny":28,"refTime":"2024-07-14T03:00:00:Z","depth":0,"parameterNumber":2,"parameterNumberName":"U-component_of_WINDS"},"data":[0,0,0,0,0,0,0,0,0,0,0,0,0,0,0,0,0,0,0,0,0,0,0,0,0,0,0,0,0,0,0,0,0,0,0,0,0,0,0,0,0,0,0,0,0,0,0,0,0,0,0,0,0,0,0,0,0,0,1.4577,1.4578,0,1.4619,1.4619,1.462,1.4574,1.4573,1.4571,1.4569,1.4615,1.4618,1.4621,0,0,0,0,0,0,0,0,0,0,0,0,0,1.4462,1.4464,1.4577,1.4578,1.4578,1.4619,1.4619,1.462,1.4575,1.4572,1.457,1.4568,1.4614,1.4618,1.4621,0,0,0,0,0,0,0,0,0,0,0,0,0,1.4509,1.4465,1.4577,1.456,1.4559,1.4619,1.4619,1.462,1.4575,1.4572,1.457,1.4567,1.4613,1.4617,1.4622,1.4701,0,0,1.4635,1.4636,0,0,0,0,0,0,0,0,1.4506,1.4513,1.4562,1.4562,1.4561,1.4589,1.4596,1.4647,1.4576,1.4569,1.4569,1.4566,1.4609,1.4613,1.4627,1.4703,1.4705,1.4635,1.4638,1.4639,1.4641,0,0,0,0,0,0,0,1.4503,1.4511,1.4594,1.4563,1.4562,1.4552,1.4556,1.4605,1.4603,1.457,1.4566,1.4572,1.4608,1.4623,1.4628,1.4705,1.4635,1.4639,1.4641,1.4643,1.4848,1.4851,0,0,0,0,0,0,1.4501,1.4509,1.4593,1.4595,1.4526,1.4556,1.456,1.4582,1.4603,1.4603,1.4574,1.4569,1.4617,1.4623,1.4629,1.4723,1.4639,1.4643,1.4646,1.4846,1.4849,1.4852,0,0,0,0,0,0,1.4499,1.4509,1.4591,1.4551,1.4561,1.4561,1.4586,1.4585,1.46,1.4606,1.4606,1.4589,1.4615,1.4623,1.4683,1.4724,1.4645,1.4649,1.4842,1.4847,1.4851,1.4911,0,0,0,0,0,0,1.4496,1.4508,1.4538,1.4552,1.4563,1.4643,1.4589,1.4587,1.4607,1.4601,1.462,1.4621,1.4614,1.4677,1.4687,1.4728,1.4653,1.4838,1.4844,1.4849,1.4906,1.4917,1.4927,0,0,0,0,0,1.4492,1.4554,1.4539,1.455,1.4599,1.4646,1.4652,1.4641,1.461,1.464,1.4644,1.462,1.4718,1.4683,1.4695,1.4738,1.4836,1.4843,1.4849,1.4901,1.4915,1.4927,0,0,0,0,0,0,1.4546,1.4555,1.4539,1.4608,1.4626,1.4638,1.4675,1.4656,1.4685,1.4678,1.4665,1.467,1.4733,1.4741,1.4703,1.4815,1.4772,1.4781,1.4808,1.4821,1.4831,1.4828,1.4656,0,0,0,0,0,1.4565,1.4601,1.4608,1.4668,1.4678,1.4675,1.4695,1.4685,1.4704,1.4711,1.472,1.474,1.4775,1.4798,1.4831,1.4907,1.4911,1.4942,1.4953,1.4961,1.4969,1.501,1.5025,1.4874,1.4873,1.4873,0,0,1.4607,1.4616,1.464,1.4679,1.4692,1.473,1.4682,1.4724,1.4753,1.4718,1.4775,1.4782,1.4804,1.4872,1.4902,1.4881,1.5012,1.497,1.4977,1.498,1.5019,1.5033,1.5046,1.4878,1.4877,1.4876,0,0,1.4701,1.4712,1.4763,1.4777,1.4796,1.4794,1.4807,1.4821,1.4824,1.4881,1.4855,1.489,1.495,1.4967,1.4983,1.5085,1.5064,1.5096,1.5152,1.5192,1.5204,1.5214,1.525,1.5264,1.5104,1.5104,1.5104,0,1.475,1.4806,1.4792,1.4836,1.4854,1.4823,1.4875,1.489,1.492,1.4934,1.4909,1.4984,1.4997,1.5068,1.5093,1.5107,1.5121,1.5093,1.5203,1.5213,1.5223,1.5257,1.5271,1.5108,1.5107,1.5107,1.5106,0,1.4865,1.4904,1.4943,1.4972,1.4994,1.5043,1.5037,1.5061,1.505,1.505,1.5109,1.5123,1.5157,1.5174,1.5163,1.5244,1.523,1.5205,1.516,1.5241,1.5273,1.5286,1.5113,1.5112,1.511,1.511,0,0,1.4995,1.5015,1.503,1.5042,1.5062,1.5092,1.5139,1.5172,1.5194,1.5216,1.5256,1.5308,1.5284,1.5302,1.5293,1.5329,1.5408,1.5298,1.5299,1.5319,1.5499,1.5518,1.5534,1.5395,1.5397,1.5399,1.5497,0,1.509,1.517,1.5159,1.5237,1.5273,1.5244,1.5285,1.5302,1.5305,1.5337,1.5339,1.5376,1.5342,1.5353,1.5387,1.5391,1.5444,1.5384,1.5432,1.5434,1.5428,1.555,1.5571,1.5663,1.551,1.5512,1.5513,0,1.5212,1.5237,1.5318,1.5332,1.5347,1.5383,1.5413,1.5443,1.5463,1.5462,1.5483,1.5467,1.5516,1.5471,1.5537,1.5497,1.5516,1.5521,1.5525,1.5529,1.5479,1.5558,1.5692,1.5706,1.5533,1.5531,1.553,0,1.5299,1.5353,1.5408,1.542,1.5437,1.5464,1.5473,1.5489,1.551,1.5536,1.555,1.5582,1.5599,1.5625,1.5619,1.5587,1.5688,1.5642,1.5689,1.5689,1.5712,1.571,1.585,1.5724,1.5724,1.5724,1.5723,0,1.5406,1.5457,1.5447,1.5481,1.5537,1.5525,1.5581,1.5586,1.5601,1.5637,1.5615,1.5649,1.5639,1.5673,1.5669,1.5725,1.5733,1.5734,1.5733,1.5736,1.5736,1.5749,1.5742,1.5727,1.5726,1.5726,1.5725,0,1.5513,1.5508,1.5567,1.5578,1.5582,1.5623,1.5634,1.5666,1.5667,1.5712,1.5722,1.5723,1.5761,1.5758,1.5802,1.5799,1.5869,1.586,1.5862,1.586,1.5907,1.5903,1.606,1.608,1.5941,1.5942,1.5943,0,1.5582,1.562,1.5635,1.5657,1.5667,1.5702,1.5723,1.5712,1.5734,1.5759,1.5789,1.5825,1.5854,1.5917,1.5923,1.5956,1.5948,1.6001,1.5953,1.5956,1.5949,1.5947,1.5951,1.601,1.6012,1.6013,1.6014,0,1.5705,1.57,1.573,1.576,1.5784,1.5807,1.5828,1.5847,1.5838,1.5865,1.5904,1.5926,1.597,1.6007,1.6039,1.6049,1.6031,1.6029,1.6042,1.6046,1.6046,1.6047,1.5888,1.6026,1.6025,1.6024,1.6023,1.6023,1.5795,1.5827,1.5843,1.5877,1.5891,1.5911,1.5942,1.5946,1.5977,1.6011,1.6003,1.6047,1.6066,1.6107,1.612,1.6155,1.6136,1.6155,1.6159,1.6164,1.6169,1.604,1.6161,1.6161,1.616,1.616,1.616,0,1.5917,1.5925,1.5956,1.5985,1.6013,1.5991,1.6013,1.6038,1.6076,1.6094,1.6123,1.6167,1.6203,1.6211,1.6245,1.6272,1.6264,1.6281,1.6279,1.6282,1.6184,1.617,1.6287,1.6287,1.6287,1.6287,1.6287,1.6286,1.5983,1.6037,1.6035,1.6096,1.6104,1.6146,1.616,1.6179,1.6193,1.6243,1.6272,1.6277,1.6291,1.6327,1.6359,1.636,1.6374,1.6394,1.6393,1.6302,1.6289,1.6277,1.6263,1.6397,1.6398,1.6487,1.6488,1.6489]},{"header":{"parameterUnit":"m.s-1","parameterCategory":1,"la1":30.2991,"la2":30.254,"lo1":-89.0895,"lo2":-89.0444,"dy":0.0017,"dx":0.0017,"nx":28,"ny":28,"refTime":"2024-07-14T03:00:00:Z","depth":0,"parameterNumber":3,"parameterNumberName":"V-component_of_WINDS"},"data":[0,0,0,0,0,0,0,0,0,0,0,0,0,0,0,0,0,0,0,0,0,0,0,0,0,0,0,0,0,0,0,0,0,0,0,0,0,0,0,0,0,0,0,0,0,0,0,0,0,0,0,0,0,0,0,0,0,0,-0.932,-0.9319,0,-0.9296,-0.9295,-0.9295,-0.9271,-0.927,-0.927,-0.927,-0.9243,-0.9243,-0.9243,0,0,0,0,0,0,0,0,0,0,0,0,0,-0.9343,-0.9343,-0.932,-0.9319,-0.9319,-0.9296,-0.9295,-0.9295,-0.9271,-0.927,-0.927,-0.927,-0.9244,-0.9243,-0.9243,0,0,0,0,0,0,0,0,0,0,0,0,0,-0.9327,-0.9343,-0.932,-0.9304,-0.9303,-0.9296,-0.9295,-0.9295,-0.9271,-0.927,-0.927,-0.9269,-0.9244,-0.9243,-0.9243,-0.9249,0,0,-0.9241,-0.924,0,0,0,0,0,0,0,0,-0.9328,-0.9326,-0.9307,-0.9305,-0.9303,-0.9286,-0.9294,-0.9279,-0.9271,-0.9283,-0.927,-0.9269,-0.9258,-0.9256,-0.9252,-0.9247,-0.9246,-0.9241,-0.924,-0.924,-0.924,0,0,0,0,0,0,0,-0.9329,-0.9327,-0.931,-0.9306,-0.9304,-0.9298,-0.9295,-0.9291,-0.9273,-0.9282,-0.928,-0.9277,-0.9257,-0.9253,-0.9252,-0.9246,-0.9241,-0.924,-0.924,-0.924,-0.9244,-0.9245,0,0,0,0,0,0,-0.9333,-0.9328,-0.9311,-0.9309,-0.9315,-0.9298,-0.9295,-0.9292,-0.9273,-0.927,-0.9278,-0.9276,-0.9254,-0.9252,-0.9251,-0.9256,-0.924,-0.9239,-0.9239,-0.9244,-0.9244,-0.9245,0,0,0,0,0,0,-0.9334,-0.9332,-0.9312,-0.9318,-0.9315,-0.9298,-0.9295,-0.9292,-0.9288,-0.927,-0.9267,-0.9278,-0.9254,-0.9251,-0.9249,-0.9255,-0.9239,-0.9239,-0.9243,-0.9244,-0.9244,-0.9267,0,0,0,0,0,0,-0.9334,-0.9332,-0.9335,-0.9319,-0.9315,-0.9311,-0.9295,-0.9291,-0.9287,-0.9285,-0.9269,-0.9266,-0.9253,-0.925,-0.9249,-0.9254,-0.9238,-0.9242,-0.9243,-0.9244,-0.9266,-0.9269,-0.9271,0,0,0,0,0,-0.9335,-0.9342,-0.9335,-0.9333,-0.9318,-0.9312,-0.931,-0.9295,-0.9288,-0.929,-0.9279,-0.9267,-0.9255,-0.925,-0.9248,-0.9253,-0.9242,-0.9243,-0.9244,-0.9265,-0.9268,-0.9271,0,0,0,0,0,0,-0.9358,-0.9339,-0.9331,-0.9333,-0.9324,-0.9308,-0.931,-0.93,-0.9292,-0.929,-0.9273,-0.9269,-0.9269,-0.9261,-0.9256,-0.9258,-0.9247,-0.9247,-0.9263,-0.9266,-0.9269,-0.927,-0.9238,0,0,0,0,0,-0.9363,-0.936,-0.9344,-0.9347,-0.9343,-0.9327,-0.9324,-0.9314,-0.9304,-0.93,-0.9288,-0.9279,-0.9273,-0.9269,-0.9263,-0.9265,-0.9261,-0.9267,-0.927,-0.9272,-0.9273,-0.9273,-0.9275,-0.9248,-0.9248,-0.9248,0,0,-0.9374,-0.9363,-0.9362,-0.9351,-0.9343,-0.934,-0.9324,-0.9322,-0.9319,-0.9299,-0.9296,-0.9288,-0.9276,-0.9276,-0.9275,-0.9269,-0.928,-0.9274,-0.9276,-0.9275,-0.9274,-0.9277,-0.9279,-0.9249,-0.9249,-0.9249,0,0,-0.9391,-0.9383,-0.9385,-0.9377,-0.9366,-0.9355,-0.9356,-0.9341,-0.9334,-0.9332,-0.9317,-0.9313,-0.9304,-0.9295,-0.929,-0.9305,-0.9294,-0.9304,-0.9317,-0.9317,-0.9319,-0.9321,-0.9325,-0.9327,-0.9304,-0.9304,-0.9304,0,-0.9406,-0.9401,-0.9387,-0.9385,-0.938,-0.9363,-0.9364,-0.9357,-0.9344,-0.9341,-0.9334,-0.9322,-0.9313,-0.931,-0.9314,-0.931,-0.931,-0.9305,-0.932,-0.9322,-0.9323,-0.9327,-0.9329,-0.9306,-0.9305,-0.9305,-0.9305,0,-0.9419,-0.9416,-0.9418,-0.9406,-0.9402,-0.9402,-0.9387,-0.9384,-0.9374,-0.9365,-0.9362,-0.935,-0.9341,-0.934,-0.933,-0.9336,-0.9333,-0.9323,-0.9311,-0.9327,-0.9331,-0.9332,-0.9307,-0.9307,-0.9307,-0.9306,0,0,-0.9449,-0.943,-0.9431,-0.9425,-0.9411,-0.9408,-0.9407,-0.9399,-0.9396,-0.9388,-0.9386,-0.9379,-0.937,-0.9364,-0.9353,-0.9354,-0.9366,-0.9344,-0.9344,-0.9348,-0.9371,-0.9377,-0.9379,-0.9358,-0.9359,-0.9359,-0.9372,0,-0.9464,-0.9461,-0.9448,-0.9449,-0.9445,-0.9429,-0.9428,-0.9419,-0.941,-0.9406,-0.9395,-0.939,-0.938,-0.9376,-0.9376,-0.9364,-0.937,-0.9363,-0.9356,-0.9356,-0.9358,-0.9381,-0.9388,-0.9401,-0.9373,-0.9373,-0.9373,0,-0.948,-0.9473,-0.9474,-0.946,-0.9458,-0.9457,-0.9449,-0.9445,-0.9434,-0.9427,-0.9421,-0.941,-0.9407,-0.9396,-0.9392,-0.9388,-0.9384,-0.9378,-0.9378,-0.9376,-0.9365,-0.9379,-0.9404,-0.9406,-0.9376,-0.9375,-0.9375,0,-0.9501,-0.9492,-0.9491,-0.9487,-0.9471,-0.9471,-0.9464,-0.9453,-0.9449,-0.9441,-0.9438,-0.943,-0.9426,-0.9419,-0.9406,-0.94,-0.9403,-0.9391,-0.9396,-0.9397,-0.9397,-0.9397,-0.9421,-0.9396,-0.9396,-0.9396,-0.9396,0,-0.9518,-0.9519,-0.9501,-0.95,-0.95,-0.9486,-0.9486,-0.9478,-0.9468,-0.9465,-0.9451,-0.9448,-0.9431,-0.9426,-0.9416,-0.9413,-0.9411,-0.9405,-0.9402,-0.9406,-0.9407,-0.9403,-0.9401,-0.9396,-0.9396,-0.9396,-0.9396,0,-0.9542,-0.9529,-0.9527,-0.9513,-0.9509,-0.951,-0.9497,-0.9495,-0.9486,-0.9482,-0.9481,-0.9465,-0.9459,-0.9445,-0.9435,-0.9427,-0.9427,-0.9423,-0.9431,-0.9429,-0.9435,-0.9434,-0.9456,-0.9458,-0.9433,-0.9433,-0.9433,0,-0.9553,-0.9553,-0.9539,-0.9536,-0.953,-0.9526,-0.9522,-0.9507,-0.9504,-0.9492,-0.9492,-0.9484,-0.9478,-0.9468,-0.9456,-0.9448,-0.9442,-0.945,-0.9441,-0.9445,-0.9441,-0.9441,-0.9441,-0.9452,-0.9453,-0.9453,-0.9453,0,-0.9574,-0.9568,-0.9563,-0.9556,-0.9551,-0.9545,-0.9537,-0.9536,-0.9519,-0.9516,-0.9509,-0.9504,-0.9494,-0.9487,-0.9477,-0.9469,-0.9458,-0.9457,-0.9457,-0.9461,-0.9465,-0.9462,-0.9436,-0.9456,-0.9456,-0.9455,-0.9455,-0.9455,-0.9591,-0.9591,-0.9581,-0.9575,-0.9568,-0.9562,-0.956,-0.955,-0.9545,-0.9536,-0.9527,-0.9522,-0.9511,-0.9497,-0.949,-0.9485,-0.948,-0.9481,-0.9481,-0.9481,-0.9483,-0.9467,-0.9483,-0.9483,-0.9483,-0.9483,-0.9483,0,-0.9611,-0.9604,-0.9599,-0.959,-0.9585,-0.9576,-0.9568,-0.9564,-0.956,-0.9551,-0.9545,-0.9538,-0.9531,-0.9518,-0.951,-0.9508,-0.9503,-0.9506,-0.9506,-0.9504,-0.9488,-0.9488,-0.9511,-0.9511,-0.9511,-0.9511,-0.9511,-0.9511,-0.9621,-0.9619,-0.9612,-0.9607,-0.96,-0.9595,-0.959,-0.9584,-0.9577,-0.957,-0.9564,-0.9556,-0.9545,-0.9536,-0.9529,-0.9526,-0.9523,-0.9528,-0.9523,-0.9508,-0.9505,-0.9503,-0.9503,-0.9528,-0.9528,-0.9539,-0.9539,-0.9539]}]]